Location: Boitzum
(52.1496°N, 9.6943°E)
Time: 09:24:51
(UTC+00:00)

Meteor 2-13 Rocket - Visible Passes

Search period start: 10 April 2026 00:00
Search period end: 20 April 2026 00:00
Orbit: 936 x 957 km, 82.5° (Epoch: 10 April)

Date Brightness Start Highest point End Pass type
(mag) Time Alt. Az. Time Alt. Az. Time Alt. Az.
10 Apr 4.8 18:41:05 10° NNW 18:47:13 72° W 18:53:20 10° S visible
10 Apr 7.2 20:27:53 10° NW 20:30:55 14° WNW 20:33:58 10° WSW visible
11 Apr 5.5 18:57:54 10° NNW 19:03:47 50° W 19:09:40 10° SSW visible
12 Apr 6.2 19:14:48 10° NNW 19:20:16 35° W 19:25:44 10° SSW visible
13 Apr 6.8 19:31:53 10° NNW 19:36:40 24° W 19:41:26 10° SW visible
14 Apr 7.2 19:49:17 10° NW 19:52:59 17° WNW 19:56:40 10° WSW visible
15 Apr 7.6 20:07:37 10° WNW 20:09:12 11° WNW 20:10:46 10° W visible
17 Apr 6.8 18:53:34 10° NNW 18:58:40 28° W 19:03:46 10° SW visible
18 Apr 7.2 19:10:48 10° NW 19:15:01 20° W 19:19:13 10° WSW visible
19 Apr 7.5 19:28:34 10° NW 19:31:16 13° WNW 19:33:59 10° W visible
